Date String (YYYY-MM-DD hh:mm:ss) UTC,Instrument flags,Ambient pressure (hPa),Sample flow (lpm),Bypass flow (lpm),Sample temperature (°C),Ambient temperature (°C),ASC tube jacket temperature (°C),LED temperature (°C),Box temperature (°C),Sample RH (%),Span deviation,Mass concentration (μg/m³),Mass concentration (μg/m³),Mass concentration (μg/m³)
DateTimeUTC,F1_M11,P_M11,Q1_M11,Q2_M11,T1_M11,T2_M11,T3_M11,T4_M11,T5_M11,U1_M11,ZSPAN_M11,X2_M11,X0_M11,X1_M11
2022-11-06 22:00:00,,0825.4,4.99,0.00,22.2,21.0,00.0,31.0,24.1,15.8,0000.0,0002.59,0007.95,0001.85
2022-11-06 22:01:00,,0825.4,5.01,0.00,22.2,21.1,00.0,31.0,24.2,15.9,0000.0,0002.60,0007.71,0001.88
2022-11-06 22:02:00,,0825.4,4.99,0.00,22.2,21.1,00.0,31.0,24.2,15.4,0000.0,0002.61,0007.92,0001.88
2022-11-06 22:03:00,,0825.5,5.00,0.00,22.3,21.1,00.0,31.0,24.2,15.3,0000.0,0002.59,0008.10,0001.87
2022-11-06 22:04:00,,0825.5,5.02,0.00,22.3,21.1,00.0,31.0,24.2,15.4,0000.0,0002.51,0007.66,0001.85
2022-11-06 22:05:00,,0825.4,4.98,0.00,22.3,21.1,00.0,31.0,24.2,15.5,0000.0,0002.45,0007.56,0001.83
2022-11-06 22:06:00,,0825.5,5.01,0.00,22.3,21.0,00.0,31.0,24.2,15.6,0000.0,0002.45,0007.61,0001.82
2022-11-06 22:07:00,,0825.6,5.00,0.00,22.3,21.0,00.0,31.0,24.2,15.3,0000.0,0002.45,0007.78,0001.82
2022-11-06 22:08:00,,0825.5,4.99,0.00,22.2,20.9,00.0,31.0,24.2,15.1,0000.0,0002.37,0007.96,0001.79
2022-11-06 22:09:00,,0825.5,5.02,0.00,22.2,20.9,00.0,31.0,24.2,15.1,0000.0,0002.33,0007.79,0001.75
2022-11-06 22:10:00,,0825.6,4.98,0.00,22.2,20.9,00.0,31.0,24.2,15.1,0000.0,0002.26,0007.29,0001.74
2022-11-06 22:11:00,,0825.5,5.01,0.00,22.2,20.9,00.0,31.0,24.1,15.2,0000.0,0002.24,0007.09,0001.73
2022-11-06 22:12:00,,0825.5,5.01,0.00,22.2,20.9,00.0,31.0,24.1,15.3,0000.0,0002.24,0008.02,0001.71
2022-11-06 22:13:00,,0825.6,5.00,0.00,22.2,20.9,00.0,31.0,24.1,15.4,0000.0,0002.28,0008.57,0001.72
2022-11-06 22:14:00,,0825.6,4.99,0.00,22.2,20.9,00.0,31.0,24.1,15.5,0000.0,0002.40,0008.28,0001.77
2022-11-06 22:15:00,,0825.5,4.99,0.00,22.2,20.9,00.0,31.0,24.1,15.4,0000.0,0002.44,0009.01,0001.80
2022-11-06 22:16:00,,0825.5,5.01,0.00,22.2,20.8,00.0,31.0,24.1,15.6,0000.0,0002.52,0010.13,0001.83
2022-11-06 22:17:00,,0825.5,4.98,0.00,22.2,20.8,00.0,31.0,24.1,15.8,0000.0,0002.64,0010.28,0001.89
2022-11-06 22:18:00,,0825.5,5.01,0.00,22.2,20.8,00.0,31.0,24.1,15.5,0000.0,0002.67,0009.99,0001.94
2022-11-06 22:19:00,,0825.5,4.98,0.00,22.2,20.8,00.0,31.0,24.1,15.3,0000.0,0002.69,0009.60,0001.97
2022-11-06 22:20:00,,0825.5,5.01,0.00,22.2,20.8,00.0,31.0,24.1,15.3,0000.0,0002.73,0009.55,0002.02
2022-11-06 22:21:00,,0825.5,4.98,0.00,22.2,20.8,00.0,31.0,24.1,15.1,0000.0,0002.78,0009.74,0002.03
2022-11-06 22:22:00,,0825.5,5.01,0.00,22.2,20.8,00.0,31.0,24.1,15.3,0000.0,0002.77,0009.73,0002.02
2022-11-06 22:23:00,,0825.5,5.00,0.00,22.2,20.8,00.0,31.0,24.1,15.2,0000.0,0002.81,0009.07,0002.02
2022-11-06 22:24:00,,0825.6,4.99,0.00,22.2,20.8,00.0,31.0,24.1,15.2,0000.0,0002.83,0008.84,0002.03
2022-11-06 22:25:00,,0825.6,4.99,0.00,22.2,20.8,00.0,31.0,24.1,15.2,0000.0,0002.78,0009.26,0001.99
2022-11-06 22:26:00,,0825.5,5.01,0.00,22.2,20.8,00.0,31.0,24.1,15.5,0000.0,0002.75,0009.35,0001.97
2022-11-06 22:27:00,,0825.5,4.98,0.00,22.2,20.8,00.0,31.0,24.1,15.5,0000.0,0002.70,0008.58,0001.95
2022-11-06 22:28:00,,0825.5,5.01,0.00,22.2,20.9,00.0,31.0,24.1,15.3,0000.0,0002.62,0009.11,0001.89
2022-11-06 22:29:00,,0825.6,5.00,0.00,22.2,20.9,00.0,31.0,24.1,15.4,0000.0,0002.56,0009.36,0001.83
2022-11-06 22:30:00,,0825.6,5.00,0.00,22.2,20.8,00.0,31.0,24.1,15.5,0000.0,0002.55,0009.34,0001.79
2022-11-06 22:31:00,,0825.6,5.01,0.00,22.2,20.8,00.0,31.0,24.1,15.3,0000.0,0002.55,0009.56,0001.73
2022-11-06 22:32:00,,0825.6,4.99,0.00,22.2,20.8,00.0,31.0,24.1,15.5,0000.0,0002.53,0009.91,0001.72
2022-11-06 22:33:00,,0825.7,4.99,0.00,22.2,20.9,00.0,31.0,24.1,15.7,0000.0,0002.56,0009.92,0001.75
2022-11-06 22:34:00,,0825.6,5.02,0.00,22.2,20.8,00.0,31.0,24.1,15.6,0000.0,0002.55,0009.86,0001.75
2022-11-06 22:35:00,,0825.6,4.98,0.00,22.2,20.9,00.0,31.0,24.1,15.7,0000.0,0002.51,0009.81,0001.73
2022-11-06 22:36:00,,0825.7,5.01,0.00,22.2,20.8,00.0,31.0,24.1,15.6,0000.0,0002.45,0010.25,0001.75
2022-11-06 22:37:00,,0825.7,5.01,0.00,22.2,20.9,00.0,31.0,24.1,15.5,0000.0,0002.47,0010.00,0001.76
2022-11-06 22:38:00,,0825.7,5.00,0.00,22.2,20.9,00.0,31.0,24.1,15.6,0000.0,0002.48,0009.64,0001.76
2022-11-06 22:39:00,,0825.8,5.00,0.00,22.2,20.9,00.0,31.0,24.1,15.5,0000.0,0002.42,0009.18,0001.75
2022-11-06 22:40:00,,0825.7,5.01,0.00,22.2,20.8,00.0,31.0,24.1,15.5,0000.0,0002.41,0009.61,0001.74
2022-11-06 22:41:00,,0825.7,5.00,0.00,22.2,20.8,00.0,31.0,24.1,15.4,0000.0,0002.38,0009.65,0001.73
2022-11-06 22:42:00,,0825.7,4.99,0.00,22.2,20.8,00.0,31.0,24.1,15.4,0000.0,0002.35,0009.46,0001.74
2022-11-06 22:43:00,,0825.7,5.01,0.00,22.2,20.8,00.0,31.0,24.1,15.4,0000.0,0002.37,0008.72,0001.76
2022-11-06 22:44:00,,0825.6,4.99,0.00,22.2,20.8,00.0,31.0,24.1,15.3,0000.0,0002.37,0009.16,0001.74
2022-11-06 22:45:00,,0825.7,5.00,0.00,22.2,20.7,00.0,31.0,24.1,15.6,0000.0,0002.33,0009.15,0001.73
2022-11-06 22:46:00,,0825.7,5.00,0.00,22.2,20.8,00.0,30.9,24.1,15.6,0000.0,0002.36,0008.90,0001.73
2022-11-06 22:47:00,,0825.7,4.99,0.00,22.2,20.8,00.0,31.0,24.1,15.3,0000.0,0002.38,0007.88,0001.72
2022-11-06 22:48:00,,0825.7,5.01,0.00,22.2,20.7,00.0,30.9,24.1,15.3,0000.0,0002.38,0007.98,0001.71
2022-11-06 22:49:00,,0825.7,4.98,0.00,22.1,20.7,00.0,30.9,24.0,15.3,0000.0,0002.40,0008.04,0001.70
2022-11-06 22:50:00,,0825.7,5.01,0.00,22.1,20.7,00.0,30.9,24.0,15.6,0000.0,0002.49,0008.13,0001.71
2022-11-06 22:51:00,,0825.7,5.00,0.00,22.1,20.8,00.0,30.9,24.0,15.6,0000.0,0002.52,0007.23,0001.73
2022-11-06 22:52:00,,0825.7,4.99,0.00,22.1,20.7,00.0,30.9,24.0,15.7,0000.0,0002.56,0007.95,0001.77
2022-11-06 22:53:00,,0825.7,5.01,0.00,22.1,20.7,00.0,30.9,24.0,15.8,0000.0,0002.58,0008.30,0001.81
2022-11-06 22:54:00,,0825.7,4.99,0.00,22.1,20.7,00.0,30.9,24.0,15.9,0000.0,0002.59,0008.39,0001.82
2022-11-06 22:55:00,,0825.7,5.00,0.00,22.1,20.7,00.0,30.9,24.0,16.1,0000.0,0002.62,0007.95,0001.85
2022-11-06 22:56:00,,0825.7,4.99,0.00,22.1,20.8,00.0,30.9,24.1,16.2,0000.0,0002.65,0007.94,0001.89
2022-11-06 22:57:00,,0825.6,5.01,0.00,22.1,20.8,00.0,30.9,24.1,16.2,0000.0,0002.67,0007.91,0001.92
2022-11-06 22:58:00,,0825.6,4.98,0.00,22.1,20.8,00.0,30.9,24.0,16.2,0000.0,0002.73,0007.94,0001.96
2022-11-06 22:59:00,,0825.7,5.01,0.00,22.1,20.8,00.0,30.9,24.0,16.3,0000.0,0002.76,0008.27,0002.01
